sat.trackr.live / text

‹ back to catalog

UNKNOWN

NORAD 87304

UNKNOWN UNKNOWN UNKNOWN

§ Identity

Operator
Country
Launch date
Launch site
Launch vehicle
Mass (kg)
RCS (m²)

External: N2YO · Heavens-Above

§ Orbital elements

Epoch: 2026-05-23T20:43:48.902880Z

Period
97.56 min
Inclination
74.0186°
Eccentricity
0.0018489
Mean motion
14.76054030 rev/d
Perigee alt
628.8 km
Apogee alt
654.8 km
Semi-major
7,019.9 km
B*
1.3685e-4
RAAN
3.3992°
Arg perigee
289.2605°
Mean anomaly
70.6569°
Rev number
67,039

§ Raw data

UNKNOWN1 87304U          26143.86376045  .00000911  00000+0  13685-3 0  99932 87304  74.0186   3.3992 0018489 289.2605  70.6569 14.76054030670396

JSON: /api/v1/satellites/87304 · /tle

For live sub-satellite position, see the globe view (requires WebGL).

§ Visibility from observer

Set your observer location to see the next 7 days of passes ≥ 10°. The values pass through the URL so the page stays shareable.

No JS? Fill the form by hand. The geolocation button needs JavaScript.